User: anonymous   Login
Location: Carrer del Canonge
(41.4901°N, 2.2931°E)
Time: 23:10:45
(UTC+00:00)
Language:

Cosmos 2026 Rocket - Orbit

View from above orbital plane
View from above orbital plane
View from above satellite
View from above satellite

Ground track
Ground track

The orbit data is extracted from the following two-line orbital elements,

1 20046U 89042B   21127.60228906  .00000141  00000-0  12365-3 0  9997
2 20046  82.9351 324.5446 0043021  46.7577 313.7159 13.78226402604695
Epoch (UTC): 07 May 2021 14:27:17
Eccentricity: 0.0043021
inclination: 82.9351°
perigee height: 938 km
apogee height: 1002 km
right ascension of ascending node: 324.5446°
argument of perigee: 46.7577°
revolutions per day: 13.78226402
mean anomaly at epoch: 313.7159°
orbit number at epoch: 60469

The dashed part of the orbit path shows where the satellite is in the earth's shadow,  

DLR